Date_and_time,latitude,longitude,wind_speed,RelWindDirFrom,WindDirFrom,air_pressure,air_temperature,relative_humidity,Temp,platform_speed_wrt_ground,air_pressure_at_mean_sea_level,platform_orientation
2019-06-22 23:40,50.6304383333333,-96.9807566666667,20.2,25.3,136,985.39,17.9,90,20.44,0.0,1011.44,305.3
2019-06-22 23:50,50.6304433333333,-96.9807616666667,20.0,25.3,138,985.16,17.9,87,20.45,0.0,1011.22,305.3
2019-06-23 00:00,50.6304466666667,-96.9807616666667,19.7,25.5,133,984.99,18.1,87,20.47,0.0,1011.03,119.2
2019-06-23 00:10,50.6304416666667,-96.9807666666667,20.2,24.9,132,984.88,18.2,85,20.46,0.0,1010.91,119.2
2019-06-23 00:20,50.6304483333333,-96.9807733333333,19.5,26.9,131,984.82,18.2,81,20.45,0.0,1010.86,119.2
2019-06-23 00:30,50.6304483333333,-96.9807716666667,20.3,27.2,132,984.76,18.1,79,20.44,0.0,1010.79,119.2
2019-06-23 00:40,50.63045,-96.9807716666667,21.6,27.7,135,984.66,18.0,76,20.43,0.0,1010.70,119.2
2019-06-23 00:50,50.6304483333333,-96.98077,20.1,26.8,133,984.63,17.9,75,20.42,0.0,1010.67,119.2
2019-06-23 01:00,50.6304666666667,-96.980795,18.5,25.0,131,984.57,18.1,78,20.41,0.0,1010.58,327.5
2019-06-23 01:10,50.630445,-96.9807716666667,17.3,22.7,131,984.41,18.0,83,20.39,0.0,1010.44,327.5
2019-06-23 01:20,50.63045,-96.98077,17.1,22.6,131,984.22,18.0,85,20.41,0.0,1010.24,327.5
2019-06-23 01:30,50.6304483333333,-96.9807666666667,17.1,21.6,128,984.13,18.4,86,20.41,0.0,1010.14,327.5
2019-06-23 01:40,50.6304516666667,-96.98076,17.8,26.5,133,984.08,18.4,85,20.41,0.0,1010.09,327.5
2019-06-23 01:50,50.6304466666667,-96.98077,21.9,28.7,138,983.83,18.2,84,20.36,0.0,1009.83,327.5
2019-06-23 02:00,50.630445,-96.98077,22.9,27.5,144,983.69,17.9,86,20.34,0.0,1009.70,167.4
2019-06-23 02:10,50.63044,-96.9807933333333,23.2,28.4,141,983.57,17.8,86,20.34,0.0,1009.58,167.4
2019-06-23 02:20,50.6304466666667,-96.9807666666667,21.9,28.0,145,983.64,17.7,87,20.31,0.0,1009.65,167.4
2019-06-23 02:30,50.6304483333333,-96.9807833333333,21.9,26.6,148,983.63,17.6,85,20.26,0.0,1009.65,167.4
2019-06-23 02:40,50.6304433333333,-96.98078,21.1,27.0,148,983.51,17.5,86,20.29,0.0,1009.54,167.4
2019-06-23 02:50,50.63044,-96.980775,21.8,26.1,147,983.45,17.4,87,20.30,0.0,1009.47,167.4
2019-06-23 03:00,50.6304416666667,-96.9807766666667,21.3,25.9,148,983.42,17.4,85,20.29,0.0,1009.45,234.7
2019-06-23 03:10,50.6304433333333,-96.9807733333333,21.2,24.5,143,983.39,17.4,85,20.25,0.0,1009.42,234.7
2019-06-23 03:20,50.6304516666667,-96.9807716666667,21.1,25.5,145,983.33,17.4,84,20.24,0.0,1009.34,234.7
2019-06-23 03:30,50.63045,-96.98077,20.2,25.7,147,983.20,17.4,86,20.22,0.0,1009.20,234.7
2019-06-23 03:40,50.63045,-96.98077,20.7,24.9,146,983.04,17.3,87,20.21,0.0,1009.06,234.7
2019-06-23 03:50,50.63045,-96.9807683333333,20.7,25.4,147,983.00,17.2,87,20.23,0.0,1009.03,234.7
2019-06-23 04:00,50.6304516666667,-96.98077,20.4,26.4,150,982.95,17.1,87,20.18,0.0,1008.99,125.8
2019-06-23 04:10,50.6304483333333,-96.98077,20.2,25.4,152,982.90,17.1,86,20.11,0.0,1008.94,125.8
2019-06-23 04:20,50.6304483333333,-96.98077,18.1,23.4,156,982.92,17.1,86,20.16,0.0,1008.97,125.8
2019-06-23 04:30,50.63045,-96.9807683333333,19.4,23.0,162,982.86,17.0,85,20.19,0.0,1008.92,125.8
2019-06-23 04:40,50.63045,-96.98077,18.2,25.4,170,982.87,16.9,82,20.18,0.0,1008.93,125.8
2019-06-23 04:50,50.63045,-96.98077,17.8,23.0,170,982.96,16.6,81,20.16,0.0,1009.04,125.8
2019-06-23 05:00,50.63045,-96.9807683333333,16.3,20.0,169,982.89,16.4,82,20.13,0.0,1008.98,360.0
2019-06-23 05:10,50.63045,-96.98077,15.6,19.1,169,982.84,16.1,83,20.13,0.0,1008.95,360.0
2019-06-23 05:20,50.6304516666667,-96.9807683333333,15.6,19.8,169,982.80,16.0,83,20.10,0.0,1008.91,360.0
2019-06-23 05:30,50.6304516666667,-96.9807766666667,14.9,19.8,170,982.77,15.8,83,20.08,0.0,1008.89,360.0
2019-06-23 05:40,50.6304516666667,-96.9807716666667,15.2,19.0,171,982.65,15.7,82,20.10,0.0,1008.77,360.0
2019-06-23 05:50,50.6304533333333,-96.9807683333333,14.7,18.4,169,982.53,15.6,82,20.08,0.0,1008.66,360.0
2019-06-23 06:00,50.6304516666667,-96.980765,14.9,17.4,166,982.44,15.6,83,20.06,0.0,1008.57,360.0
2019-06-23 06:10,50.6304366666667,-96.9807566666667,15.1,19.3,169,982.40,15.6,84,20.04,0.0,1008.52,360.0
2019-06-23 06:20,50.6304383333333,-96.9807583333333,15.1,17.7,169,982.25,15.5,84,20.02,0.0,1008.37,360.0
2019-06-23 06:30,50.630455,-96.980765,16.0,21.1,165,982.06,15.5,85,20.01,0.0,1008.19,360.0
2019-06-23 06:40,50.63045,-96.980765,15.1,19.8,168,981.89,15.5,86,20.00,0.0,1008.03,360.0
2019-06-23 06:50,50.6304483333333,-96.980765,17.4,21.3,164,981.71,15.6,86,19.94,0.0,1007.86,360.0
2019-06-23 07:00,50.630415,-96.98077,16.6,20.5,168,981.66,15.6,86,19.93,0.0,1007.81,360.0
2019-06-23 07:10,50.6304383333333,-96.9807633333333,16.7,21.5,168,981.62,15.6,86,19.92,0.0,1007.78,360.0
2019-06-23 07:20,50.6304416666667,-96.9807666666667,17.3,21.6,168,981.52,15.7,86,19.91,0.0,1007.67,360.0
2019-06-23 07:30,50.6304416666667,-96.980765,16.8,21.7,170,981.50,15.5,88,19.89,0.0,1007.67,360.0
2019-06-23 07:40,50.6304466666667,-96.9807666666667,18.0,21.8,169,981.39,15.5,89,19.88,0.0,1007.57,360.0
2019-06-23 07:50,50.6304466666667,-96.9807666666667,17.1,21.4,170,981.32,15.3,90,19.88,0.0,1007.50,360.0
2019-06-23 08:00,50.6304466666667,-96.9807666666667,17.1,21.1,171,981.25,15.3,92,19.86,0.0,1007.42,360.0
2019-06-23 08:10,50.630445,-96.9807666666667,16.0,19.2,170,981.18,15.1,94,19.85,0.0,1007.37,360.0
2019-06-23 08:20,50.6304466666667,-96.980765,15.4,20.4,171,981.05,15.0,95,19.85,0.0,1007.24,360.0
2019-06-23 08:30,50.6304466666667,-96.980765,15.7,18.8,170,980.92,14.9,97,19.84,0.0,1007.11,360.0
2019-06-23 08:40,50.6304466666667,-96.9807666666667,16.4,20.8,170,980.86,14.8,98,19.83,0.0,1007.05,360.0
2019-06-23 08:50,50.6304466666667,-96.9807666666667,15.6,18.7,172,980.89,14.7,99,19.80,0.0,1007.09,360.0
2019-06-23 09:00,50.6304466666667,-96.9807666666667,14.7,19.0,172,980.89,14.6,99,19.77,0.0,1007.09,360.0
2019-06-23 09:10,50.6304483333333,-96.9807666666667,14.6,17.8,171,980.84,14.5,99,19.77,0.0,1007.04,360.0
2019-06-23 09:20,50.6304483333333,-96.9807666666667,14.1,17.8,171,980.68,14.4,100,19.77,0.0,1006.89,360.0
2019-06-23 09:30,50.6304483333333,-96.9807683333333,14.9,18.1,171,980.48,14.4,100,19.77,0.0,1006.68,360.0
2019-06-23 09:40,50.6304483333333,-96.9807666666667,14.3,17.6,174,980.42,14.4,100,19.76,0.0,1006.63,360.0
2019-06-23 09:50,50.6304483333333,-96.9807683333333,14.2,17.5,175,980.53,14.4,100,19.73,0.0,1006.74,360.0
2019-06-23 10:00,50.6304483333333,-96.9807683333333,14.4,19.2,174,980.45,14.4,100,19.71,0.0,1006.67,360.0
2019-06-23 10:10,50.6304483333333,-96.9807683333333,14.5,17.6,171,980.43,14.4,100,19.66,0.0,1006.66,360.0
2019-06-23 10:20,50.6304483333333,-96.9807683333333,14.4,18.0,171,980.30,14.3,100,19.64,0.0,1006.53,360.0
2019-06-23 10:30,50.6304483333333,-96.98077,14.8,18.9,170,980.28,14.3,100,19.66,0.0,1006.51,360.0
2019-06-23 10:40,50.6304483333333,-96.9807683333333,14.7,17.4,172,980.23,14.4,100,19.65,0.0,1006.46,360.0
2019-06-23 10:50,50.630445,-96.9807616666667,14.1,17.4,175,980.26,14.4,100,19.66,0.0,1006.50,360.0
2019-06-23 11:00,50.6304433333333,-96.98076,13.7,16.0,172,980.26,14.3,100,19.63,0.0,1006.51,167.4
2019-06-23 11:10,50.6304333333333,-96.9807683333333,14.9,19.3,172,980.30,14.6,99,19.61,0.0,1006.54,167.4
2019-06-23 11:20,50.6304583333333,-96.98078,15.4,20.0,174,980.33,14.7,99,19.60,0.0,1006.57,167.4
2019-06-23 11:30,50.63045,-96.9807533333333,14.5,17.8,173,980.29,14.6,99,19.60,0.0,1006.53,167.4
2019-06-23 11:40,50.6304483333333,-96.98076,15.0,18.5,175,980.22,14.8,98,19.56,0.0,1006.45,167.4
2019-06-23 11:50,50.63045,-96.9807616666667,15.4,20.1,176,980.13,15.0,95,19.53,0.0,1006.35,167.4
2019-06-23 12:00,50.63045,-96.980765,14.9,18.7,180,980.13,15.2,91,19.52,0.0,1006.34,360.0
2019-06-23 12:10,50.63045,-96.9807633333333,15.3,19.6,183,980.12,15.5,88,19.52,0.0,1006.32,360.0
2019-06-23 12:20,50.63045,-96.9807633333333,14.5,19.1,183,980.06,15.6,86,19.51,0.0,1006.25,360.0
2019-06-23 12:30,50.63045,-96.9807633333333,15.2,20.0,183,980.02,15.7,86,19.49,0.0,1006.20,360.0
2019-06-23 12:40,50.63045,-96.980765,14.8,19.2,183,979.94,15.7,86,19.49,0.0,1006.12,360.0
2019-06-23 12:50,50.6304566666667,-96.980775,15.5,20.1,183,979.89,15.8,86,19.49,0.0,1006.07,360.0
2019-06-23 13:00,50.6304533333333,-96.9807833333333,15.8,21.5,182,979.75,15.9,86,19.47,0.0,1005.91,291.5
2019-06-23 13:10,50.630455,-96.9807783333333,14.0,18.7,189,979.86,16.0,86,19.47,0.0,1006.01,291.5
2019-06-23 13:20,50.630455,-96.9807766666667,13.2,20.6,190,979.84,16.2,85,19.45,0.0,1005.99,291.5
2019-06-23 13:30,50.6304533333333,-96.9807766666667,12.1,18.0,200,979.64,16.4,82,19.44,0.0,1005.76,291.5
2019-06-23 13:40,50.6304533333333,-96.980775,14.2,19.6,201,979.43,16.6,79,19.46,0.0,1005.53,291.5
2019-06-23 13:50,50.6304516666667,-96.9807716666667,12.8,17.6,204,979.44,16.8,76,19.48,0.0,1005.52,291.5
2019-06-23 14:00,50.6304516666667,-96.9807716666667,14.2,18.4,197,979.37,16.9,74,19.49,0.0,1005.43,347.4
2019-06-23 14:10,50.6304516666667,-96.98077,13.5,17.6,197,979.33,17.0,75,19.50,0.0,1005.38,347.4
2019-06-23 14:20,50.63045,-96.9807683333333,13.4,17.7,194,979.35,17.1,74,19.52,0.0,1005.39,347.4
2019-06-23 14:30,50.63045,-96.9807666666667,12.6,16.3,196,979.39,17.2,72,19.55,0.0,1005.42,347.4
2019-06-23 14:40,50.6304516666667,-96.9807683333333,13.7,19.2,187,979.39,17.4,73,19.57,0.0,1005.41,347.4
2019-06-23 14:50,50.6304516666667,-96.9807683333333,13.8,18.2,183,979.47,17.5,73,19.58,0.0,1005.48,347.4
2019-06-23 15:00,50.6304516666667,-96.9807683333333,13.9,19.5,187,979.39,17.6,72,19.60,0.0,1005.39,0.0
2019-06-23 15:10,50.6304516666667,-96.98077,15.1,19.3,186,979.35,17.8,70,19.61,0.0,1005.34,0.0
2019-06-23 15:20,50.63045,-96.98077,14.8,20.4,188,979.38,18.0,68,19.64,0.0,1005.35,0.0
2019-06-23 15:30,50.6304516666667,-96.9807683333333,13.7,19.6,192,979.35,18.3,67,19.67,0.0,1005.30,0.0
2019-06-23 15:40,50.6304516666667,-96.9807683333333,13.3,18.2,191,979.35,18.4,67,19.68,0.0,1005.28,0.0
2019-06-23 15:50,50.63045,-96.9807683333333,12.5,17.5,192,979.43,18.5,65,19.70,0.0,1005.35,0.0
2019-06-23 16:00,50.63045,-96.9807683333333,12.9,17.6,189,979.36,18.8,63,19.74,0.0,1005.27,90.0
2019-06-23 16:10,50.63045,-96.9807683333333,11.3,18.7,200,979.43,18.8,63,19.77,0.0,1005.33,90.0
2019-06-23 16:20,50.63045,-96.9807683333333,11.7,16.8,199,979.48,18.8,61,19.82,0.0,1005.37,90.0
2019-06-23 16:30,50.63045,-96.9807683333333,12.3,19.1,192,979.57,19.1,60,19.84,0.0,1005.44,90.0
2019-06-23 16:40,50.63045,-96.9807683333333,11.6,17.3,197,979.70,19.1,60,19.86,0.0,1005.57,90.0
2019-06-23 16:50,50.63045,-96.9807683333333,13.9,20.7,198,979.78,19.2,60,19.89,0.0,1005.65,90.0
2019-06-23 17:00,50.63045,-96.9807683333333,13.2,18.1,192,979.82,19.3,59,19.92,0.0,1005.68,90.0
2019-06-23 17:10,50.63045,-96.9807683333333,13.7,19.0,193,979.78,19.6,57,19.93,0.0,1005.61,90.0
2019-06-23 17:20,50.63045,-96.9807683333333,13.5,18.1,195,979.74,19.6,57,19.96,0.0,1005.56,90.0
2019-06-23 17:30,50.63045,-96.9807683333333,14.0,21.2,190,979.65,19.8,57,19.99,0.0,1005.46,90.0
2019-06-23 17:40,50.63045,-96.9807683333333,14.7,19.7,198,979.61,20.0,57,20.01,0.0,1005.40,90.0
2019-06-23 17:50,50.6304633333333,-96.9807783333333,15.1,19.7,191,979.54,20.0,55,20.06,0.0,1005.32,90.0
2019-06-23 18:00,50.63044,-96.9807633333333,13.3,19.9,194,979.49,20.3,55,20.09,0.0,1005.25,360.0
2019-06-23 18:10,50.6304416666667,-96.980765,15.0,20.7,198,979.42,20.4,54,20.13,0.0,1005.17,360.0
2019-06-23 18:20,50.6304433333333,-96.9807616666667,12.8,19.6,204,979.42,20.6,52,20.16,0.0,1005.15,360.0
2019-06-23 18:30,50.6304433333333,-96.980765,12.6,16.9,195,979.35,20.7,52,20.19,0.0,1005.08,360.0
2019-06-23 18:40,50.630445,-96.980765,13.3,19.4,192,979.27,20.8,52,20.22,0.0,1004.99,360.0
2019-06-23 18:50,50.6304716666667,-96.9807666666667,11.4,16.0,188,979.26,20.8,53,20.26,0.0,1004.97,360.0
2019-06-23 19:00,50.630455,-96.9807716666667,10.5,16.6,215,979.28,21.3,51,20.31,0.0,1004.95,270.0
2019-06-23 19:10,50.6304516666667,-96.98077,11.9,18.4,201,979.22,21.4,49,20.31,0.0,1004.89,270.0
2019-06-23 19:20,50.6304533333333,-96.98077,11.7,17.6,199,979.20,21.3,49,20.27,0.0,1004.87,270.0
2019-06-23 19:30,50.6304466666667,-96.9807633333333,11.0,16.0,201,979.13,21.2,51,20.37,0.0,1004.79,270.0
2019-06-23 19:40,50.630445,-96.98079,11.1,14.6,212,979.19,21.5,50,20.42,0.0,1004.84,270.0
2019-06-23 19:50,50.6304483333333,-96.9807716666667,9.1,15.7,206,979.10,21.6,49,20.43,0.0,1004.73,270.0
2019-06-23 20:00,50.6304416666667,-96.9807666666667,10.7,16.3,217,979.02,21.8,49,20.43,0.0,1004.63,360.0
2019-06-23 20:10,50.6304433333333,-96.9807666666667,11.2,15.9,200,978.93,21.8,49,20.40,0.0,1004.53,360.0
2019-06-23 20:20,50.6304466666667,-96.9807666666667,9.8,15.6,200,978.91,21.9,48,20.36,0.0,1004.50,360.0
2019-06-23 20:30,50.6304566666667,-96.9807783333333,11.1,16.9,203,978.84,22.1,47,20.37,0.0,1004.42,360.0
2019-06-23 20:40,50.6304566666667,-96.9807716666667,8.2,13.9,206,978.78,22.2,45,20.50,0.0,1004.35,360.0
2019-06-23 20:50,50.6304566666667,-96.9807716666667,10.0,16.1,212,978.76,22.4,47,20.57,0.0,1004.30,360.0
2019-06-23 21:00,50.6304533333333,-96.98077,9.5,14.6,212,978.81,22.4,47,20.59,0.0,1004.34,38.0
2019-06-23 21:10,50.6304516666667,-96.9807716666667,9.0,13.7,218,978.76,22.5,46,20.66,0.0,1004.29,38.0
2019-06-23 21:20,50.6304516666667,-96.9807733333333,9.2,13.9,218,978.76,22.7,46,20.69,0.0,1004.29,38.0
2019-06-23 21:30,50.6304516666667,-96.9807733333333,7.8,11.4,219,978.69,22.8,46,20.70,0.0,1004.20,38.0
2019-06-23 21:40,50.63045,-96.9807733333333,7.5,12.5,205,978.60,22.7,46,20.87,0.0,1004.11,38.0
2019-06-23 21:50,50.63045,-96.9807733333333,10.0,14.8,230,978.54,23.1,44,20.89,0.0,1004.02,38.0
2019-06-23 22:00,50.6304583333333,-96.9807383333333,8.1,14.0,237,978.51,23.2,43,20.88,0.0,1003.99,75.8
2019-06-23 22:10,50.6304533333333,-96.9807783333333,7.3,11.2,222,978.47,23.0,45,20.91,0.0,1003.95,75.8
2019-06-23 22:20,50.6304533333333,-96.9807683333333,6.7,12.2,211,978.41,23.0,45,20.85,0.0,1003.88,75.8
2019-06-23 22:30,50.6304466666667,-96.98075,7.8,12.8,233,978.47,23.0,43,21.00,0.0,1003.94,75.8
2019-06-23 22:40,50.63045,-96.9807583333333,6.2,8.8,213,978.42,22.9,44,20.85,0.0,1003.88,75.8
2019-06-23 22:50,50.6304533333333,-96.9807633333333,7.2,11.1,212,978.28,23.0,44,20.70,0.0,1003.73,75.8
2019-06-23 23:00,50.630445,-96.9807833333333,7.0,12.9,234,978.23,23.3,40,20.63,0.0,1003.66,270.0
2019-06-23 23:10,50.630445,-96.9807866666667,6.9,10.2,222,978.12,23.0,41,20.69,0.0,1003.56,270.0
2019-06-23 23:20,50.6304533333333,-96.9807783333333,7.4,10.5,210,978.10,22.8,43,20.64,0.0,1003.55,270.0
2019-06-23 23:30,50.630425,-96.9807816666667,7.6,10.1,207,978.18,22.7,43,20.50,0.0,1003.64,270.0
2019-06-23 23:40,50.630455,-96.98076,7.5,12.0,225,978.17,23.0,44,20.41,0.0,1003.59,270.0
2019-06-23 23:50,50.6304966666667,-96.9807416666667,8.1,11.6,228,978.19,23.1,43,20.59,0.0,1003.60,270.0
